Location: Unspecified
(0.0000°N, 0.0000°E)
Time: 13:16:03
(UTC+00:00)

Vanguard 1 - Pass Details

Date: 10 October 2023
Orbit: 652 x 3828 km, 34.3° (Epoch: 05 December)

Event Time Altitude Azimuth Distance (km) Brightness Sun altitude
Rises 20:53:32 0° 266° (W) 7,449 15.3 -46.2°
Reaches altitude 10° 20:59:56 10° 254° (WSW) 6,721 14.8 -47.8°
Maximum altitude 21:17:38 27° 204° (SSW) 5,555 13.9 -52.1°
Drops below altitude 10° 21:34:00 10° 153° (SSE) 6,123 14.0 -56.1°
Enters shadow 21:35:11 - 150° (SSE) 6,230 14.0 -56.4°
